Theta_e
313 314 313 312 313 313 313 314 314 314 313 313 312 311 310 310 310 313 316 315 315 315 316 316 316 316 315 321 333 335 335 336 336 340 341 339 338 337 336 336 338 339 339 339 339 339 340 339 338 337 337 337 337 337 339 339 336 333 335 334 333 337 340 339 338 337 336 336 335 333 332 332 331 331 330 330 330 329 329 330 329 329 329 329 329 329
313 313 313 314 315 315 315 315 315 314 314 313 312 311 310 310 311 314 315 315 316 316 316 317 317 316 317 323 333 335 336 337 336 338 340 339 338 336 336 337 337 338 338 338 339 339 339 339 339 337 337 337 337 337 339 340 335 330 332 334 335 338 339 338 338 337 336 335 333 333 332 331 330 330 330 329 329 328 328 329 328 329 329 328 329 328
312 313 314 315 315 315 315 316 314 315 315 314 312 311 311 311 312 315 317 317 317 317 317 317 315 316 319 325 333 335 335 337 336 338 339 338 338 336 336 336 336 338 338 338 338 339 339 338 339 338 337 337 337 337 339 337 332 330 329 331 334 338 339 338 337 337 336 335 334 332 332 331 330 330 330 328 327 326 326 326 326 327 328 328 328 327
312 313 314 315 315 314 315 315 315 315 314 314 313 311 311 312 312 312 316 319 317 317 319 317 315 319 323 326 334 335 334 337 337 336 336 337 339 337 336 336 336 338 339 338 338 339 339 339 339 339 337 337 337 337 338 334 330 330 329 329 333 337 339 338 337 336 335 335 334 334 334 332 331 330 330 327 326 325 325 324 324 325 327 327 327 326
313 313 314 315 314 314 315 316 315 313 312 313 314 313 312 313 313 312 317 319 318 317 319 317 313 317 322 326 333 335 335 337 337 337 336 336 337 338 336 336 336 338 338 338 338 338 339 339 339 339 338 338 337 338 338 335 330 329 330 330 332 336 338 338 337 336 336 335 332 333 333 331 331 330 328 327 326 325 324 323 323 324 326 326 326 326
313 314 314 314 313 313 314 315 315 313 310 311 315 316 315 316 315 316 317 318 315 314 318 318 311 312 320 323 329 333 335 336 336 337 338 336 337 337 337 337 337 337 337 338 338 339 339 339 339 339 338 337 337 337 338 336 330 330 331 329 328 334 338 337 336 335 334 332 331 332 331 330 330 329 328 327 325 325 324 322 322 323 324 325 326 325
312 314 313 313 314 314 314 314 314 314 311 311 316 317 317 317 316 317 317 315 312 312 318 320 313 311 314 319 328 334 333 335 336 337 338 338 338 337 336 337 337 337 336 337 338 338 339 339 339 340 338 337 336 335 337 336 333 334 334 330 329 333 336 335 334 334 333 330 331 332 330 330 329 328 329 327 326 325 323 322 322 322 322 324 325 326
312 313 313 313 314 314 313 313 314 315 312 313 317 317 316 316 316 317 316 314 313 314 317 318 315 311 310 316 328 332 330 334 337 337 337 337 338 338 338 338 337 337 336 336 337 338 339 340 340 338 337 336 335 335 336 336 335 336 335 333 333 331 332 334 334 334 332 329 332 333 331 329 328 328 328 327 326 324 322 322 322 321 321 322 324 325
314 314 314 313 314 314 313 314 315 316 314 316 319 317 315 316 317 317 316 313 315 315 312 313 314 311 310 316 323 327 329 332 335 337 338 337 337 339 339 338 338 338 337 336 335 337 339 339 337 336 336 335 335 334 335 335 336 336 335 335 335 331 331 334 334 334 332 330 332 334 331 329 328 327 326 325 324 323 323 323 322 321 320 322 324 325
314 313 314 313 313 314 314 315 315 315 316 317 317 316 316 316 317 318 315 313 314 314 311 312 314 311 311 314 317 321 324 326 330 332 333 334 336 337 338 338 339 338 338 336 335 336 337 332 329 331 334 334 334 334 334 334 335 335 334 336 336 332 332 335 335 334 333 330 331 333 331 330 328 327 326 324 323 323 323 323 322 320 320 322 323 324
313 313 313 313 314 314 314 314 314 315 316 316 316 315 315 315 317 317 315 313 313 312 311 313 316 313 311 312 314 319 321 323 326 326 326 328 328 331 335 337 337 337 337 336 334 335 333 329 328 330 332 333 333 334 333 332 331 331 331 331 330 329 330 332 332 333 333 329 329 331 330 329 329 327 326 325 324 323 323 322 321 320 321 323 323 323
312 312 313 313 313 313 314 313 313 314 314 316 316 314 313 313 314 313 313 314 313 312 313 314 316 314 311 312 317 322 324 325 326 326 326 326 325 325 328 331 335 335 336 335 334 333 330 330 332 332 332 332 333 333 330 328 327 329 329 328 326 326 327 327 327 329 331 330 329 330 330 330 329 328 326 325 324 323 322 321 320 319 321 322 322 322
312 312 312 313 313 313 313 313 313 314 314 315 315 313 311 311 312 312 311 313 312 313 315 315 316 313 311 316 322 324 326 326 328 328 329 328 328 327 324 325 331 333 334 335 334 332 329 331 333 333 332 332 331 330 327 327 327 327 327 327 326 326 326 327 326 326 327 329 328 328 330 329 328 327 325 324 323 322 320 319 319 319 319 320 321 320
312 313 312 313 313 313 313 313 312 313 314 315 313 312 311 310 312 313 311 312 312 313 315 316 316 313 311 318 324 326 326 328 328 328 328 328 327 328 323 323 328 332 333 333 333 332 329 332 334 333 332 331 330 328 327 328 327 325 325 326 326 325 325 325 327 325 324 327 326 325 328 329 328 327 325 323 322 321 319 318 318 318 318 319 319 319
312 312 313 313 313 313 313 313 314 315 315 315 314 313 311 310 312 312 311 310 310 312 315 316 316 312 312 318 324 325 327 328 329 328 329 328 327 326 325 325 329 331 331 331 333 331 330 333 335 333 332 331 330 330 329 328 326 325 324 324 325 326 325 324 326 324 323 325 324 322 325 328 328 327 325 323 321 320 319 318 318 317 318 318 318 319
311 311 313 313 312 313 314 313 315 315 314 315 315 313 311 311 311 312 314 315 313 312 314 315 314 314 316 321 323 325 328 329 329 329 330 330 328 328 328 328 330 331 330 331 332 331 331 334 334 333 331 330 329 330 331 329 327 325 325 324 325 327 326 325 326 325 324 327 326 322 323 325 326 325 324 322 321 321 320 318 318 317 317 318 318 319
311 311 313 312 311 312 312 313 314 314 314 315 313 311 313 314 313 312 314 318 315 312 314 314 314 314 317 319 321 325 329 330 329 329 330 331 331 331 331 330 329 329 329 330 331 332 332 333 333 332 330 329 329 330 331 330 328 326 325 325 326 327 327 326 325 325 325 327 326 323 323 323 322 321 320 320 320 320 319 318 317 317 316 317 318 318
313 312 312 312 312 311 310 312 312 312 313 314 312 313 314 314 315 312 312 314 313 312 313 314 313 313 314 316 320 324 328 331 329 329 331 332 331 330 330 329 330 330 330 330 330 330 331 332 331 330 330 329 329 330 331 330 327 326 325 325 325 326 326 325 324 324 324 325 324 323 323 322 321 320 318 317 318 318 316 317 318 317 316 316 316 317
314 312 311 313 312 310 310 311 312 311 312 312 313 314 314 312 312 312 312 313 313 313 313 313 314 312 312 316 320 322 328 331 330 330 331 330 330 329 328 328 329 330 330 329 328 327 328 330 330 329 329 329 330 330 330 329 327 325 324 325 325 325 325 325 324 323 322 323 323 323 322 322 321 321 319 318 319 319 318 319 317 316 317 316 313 314
315 314 313 311 311 311 311 312 311 311 312 312 312 314 313 312 311 311 312 312 312 312 312 314 314 311 313 318 322 324 328 330 330 330 330 330 329 329 327 327 328 329 328 326 326 325 326 328 328 328 328 328 328 328 328 328 326 324 324 325 325 325 326 325 324 323 323 322 323 322 322 322 322 322 322 321 322 321 322 320 313 310 315 317 315 314
315 315 313 311 310 311 311 312 312 312 313 312 312 312 312 312 313 313 313 311 311 311 312 313 313 313 318 322 323 324 326 327 328 330 330 329 328 327 326 327 328 328 327 326 326 324 325 327 326 326 327 327 327 327 328 328 326 325 325 325 325 326 326 325 324 323 323 323 323 323 323 323 324 324 324 323 322 323 324 321 315 311 315 319 319 317
315 314 313 312 311 310 310 311 311 311 312 312 312 312 312 312 311 311 312 312 311 310 311 312 312 316 322 321 320 323 323 322 325 328 329 329 328 326 326 327 328 328 327 327 326 325 326 327 326 325 326 327 327 327 328 328 327 326 326 325 325 325 325 326 325 324 324 324 324 324 325 326 325 325 326 324 322 323 323 322 319 318 319 321 321 319
316 314 313 313 311 311 310 310 310 310 310 312 313 313 314 313 311 310 311 311 312 311 312 311 311 318 322 319 321 324 322 320 324 327 328 327 327 326 325 325 326 327 327 327 327 327 329 329 327 326 326 326 327 327 328 328 328 327 326 326 325 325 326 326 326 325 326 326 325 326 326 327 326 326 327 325 323 323 322 321 321 322 321 321 320 320
315 314 313 313 312 311 310 309 309 309 309 311 312 314 314 313 313 313 312 313 312 311 312 311 311 318 321 319 322 324 323 323 325 327 326 326 326 326 325 325 326 326 327 327 327 328 329 328 327 326 326 326 326 326 326 327 327 328 327 327 326 325 326 326 326 326 326 326 326 326 326 326 326 326 326 326 325 324 321 320 322 323 322 322 321 320
314 314 314 314 313 313 312 311 310 310 310 312 313 314 313 312 315 316 314 314 312 311 311 310 312 320 321 320 322 324 324 324 325 326 326 326 327 327 325 326 326 326 327 326 325 324 325 327 327 327 327 326 326 326 326 327 327 327 328 328 327 327 326 325 326 326 326 326 326 325 326 326 326 326 325 324 325 326 322 320 321 322 323 323 322 322
313 314 315 315 315 316 315 313 312 311 311 312 313 313 312 312 316 316 312 311 311 312 312 309 313 320 320 320 322 323 323 324 325 326 326 326 326 326 326 325 325 325 325 324 323 322 322 323 325 325 326 326 326 326 326 326 326 327 328 328 328 328 327 327 326 326 326 326 326 326 326 325 326 326 325 323 324 326 325 322 321 321 321 322 323 323
312 313 314 315 315 314 313 312 311 311 312 312 312 312 313 313 316 316 312 311 312 314 313 312 318 322 321 320 321 321 322 324 325 326 325 325 325 324 324 322 323 322 322 322 321 320 320 320 322 323 323 324 325 325 325 325 325 326 326 327 327 327 327 327 326 326 325 325 326 325 325 325 325 325 324 323 324 325 325 324 324 322 320 321 322 323
315 313 313 314 313 311 311 310 309 311 312 312 312 313 314 314 316 317 315 315 317 315 314 317 323 323 320 319 319 320 321 322 324 324 324 324 322 321 320 319 319 319 319 319 319 318 318 317 318 319 321 322 323 323 324 324 324 324 325 325 326 326 326 326 326 326 326 326 325 325 326 325 325 325 324 324 324 324 323 323 323 323 322 322 322 323
315 312 312 313 312 312 312 311 310 310 310 311 313 314 314 314 316 317 317 317 318 318 317 322 325 321 318 317 317 318 318 319 320 321 321 321 320 319 318 317 317 317 317 316 316 316 315 314 315 316 317 318 320 321 322 323 323 324 324 325 325 325 325 325 325 326 325 326 326 326 325 325 325 325 324 323 322 322 322 321 322 323 323 324 324 323
316 313 312 312 312 311 312 312 312 311 311 311 312 312 313 314 315 316 317 317 318 320 321 322 321 316 314 315 316 315 316 317 318 318 319 319 317 316 316 315 315 314 314 314 314 313 313 312 314 314 313 315 316 316 318 319 321 323 323 324 324 324 324 324 324 325 325 325 326 325 325 325 324 324 324 323 321 320 322 322 323 325 324 324 323 323
316 315 312 313 313 313 312 313 312 312 313 313 312 313 313 314 315 316 317 317 317 319 320 319 318 314 312 313 314 314 314 315 316 317 317 316 315 314 314 313 313 313 312 312 312 312 312 312 312 312 311 312 312 313 314 315 318 319 321 322 323 323 323 323 324 324 324 325 325 324 324 324 323 323 323 323 322 321 322 323 324 325 324 323 323 323
316 314 313 314 315 314 313 312 313 313 313 313 314 315 314 314 315 314 313 313 316 319 319 318 317 314 312 312 313 313 312 311 311 313 313 312 311 312 312 312 312 312 311 311 311 310 310 310 311 311 310 310 310 311 311 312 314 315 317 320 321 322 322 323 323 323 323 323 323 323 323 323 323 323 323 323 323 322 323 323 323 323 323 323 323 324
315 314 313 314 316 315 312 313 314 314 314 313 313 313 313 312 312 311 309 309 311 314 316 316 315 313 311 311 311 310 308 307 307 308 308 308 308 307 308 309 309 309 309 309 309 309 309 309 309 309 309 309 309 309 310 310 311 312 312 314 316 317 318 318 318 319 320 321 322 322 323 322 323 322 322 323 322 322 322 323 323 323 323 323 323 323
314 314 314 314 315 314 313 313 314 315 316 313 309 308 310 311 311 311 309 308 308 309 310 311 311 310 310 310 309 307 305 304 303 303 303 305 305 304 305 305 305 305 306 306 306 307 308 308 308 308 307 307 307 308 308 309 309 310 310 310 311 311 311 312 312 313 314 316 318 320 321 322 322 323 323 323 322 322 322 322 323 323 322 322 321 320
314 314 314 314 314 314 313 313 316 317 314 310 307 307 309 309 309 309 307 307 307 308 308 308 307 306 306 305 304 303 302 301 301 300 301 302 301 302 302 302 303 303 303 303 304 305 306 306 306 307 306 306 306 306 306 307 308 308 309 309 310 310 310 310 310 310 311 311 313 314 315 317 319 322 323 322 321 322 322 322 323 322 321 320 320 319
314 313 313 313 312 313 313 314 316 314 310 307 306 307 307 308 308 308 308 306 306 307 308 307 305 304 303 302 301 301 301 301 300 300 301 301 300 301 301 301 301 302 302 302 303 304 304 304 304 305 305 304 304 305 305 306 307 307 307 308 309 309 310 310 310 310 310 310 310 310 311 312 314 316 318 319 319 320 321 321 322 322 321 320 320 320
313 312 311 311 309 310 313 314 312 310 309 308 307 306 306 307 308 309 308 306 305 305 307 306 305 304 303 302 301 301 302 302 302 301 301 301 301 302 303 303 302 301 300 301 301 302 303 303 303 303 304 303 303 303 304 305 305 306 306 307 307 308 309 309 309 309 309 309 309 309 309 310 310 311 313 314 316 317 318 320 320 321 320 319 318 318
310 311 311 310 307 308 311 312 311 311 312 310 307 305 305 305 306 307 308 306 303 304 305 305 304 303 303 303 303 303 304 305 304 301 300 300 300 301 302 302 302 302 301 301 301 301 301 302 302 302 303 303 303 303 303 303 304 305 305 305 306 307 308 308 308 308 308 309 309 309 309 309 309 310 310 311 313 315 316 317 317 317 317 316 315 315
309 310 310 310 309 308 310 311 311 311 311 308 306 305 304 304 305 307 309 308 304 302 303 304 304 303 303 303 303 304 306 307 305 301 300 300 300 301 301 301 301 301 301 301 301 301 301 301 301 302 302 303 303 303 303 303 303 304 304 304 305 306 306 307 307 307 307 308 308 308 309 309 309 309 310 310 311 312 313 314 313 314 314 313 312 312
308 309 309 311 311 309 310 310 311 311 308 306 305 303 302 303 304 307 310 308 304 302 303 303 303 303 303 303 304 304 305 306 304 301 300 300 301 301 301 301 301 301 300 300 300 300 300 301 301 301 301 302 302 302 302 302 302 303 303 303 304 305 305 305 305 305 306 306 307 307 308 308 308 308 309 310 310 311 311 312 311 312 312 311 310 310
307 306 307 310 311 310 310 311 310 309 306 304 304 303 302 303 305 307 308 305 302 302 302 303 303 303 303 303 304 303 302 302 301 300 300 300 300 301 300 300 300 300 300 300 299 299 300 300 300 301 301 301 301 301 301 302 302 303 302 302 304 305 304 304 304 304 305 305 306 306 307 307 308 308 308 309 309 309 310 310 311 310 310 310 309 309
306 306 306 307 308 308 309 310 310 308 304 303 303 303 303 305 307 306 304 302 301 302 302 302 302 302 302 302 302 302 301 300 300 300 300 300 300 301 300 300 300 300 300 300 299 299 299 300 300 300 300 300 300 301 301 301 301 302 302 302 303 304 303 303 304 304 304 304 305 305 306 306 307 307 307 308 308 308 309 309 310 311 310 309 309 309
305 305 306 306 306 306 307 308 310 308 303 303 303 303 304 305 304 302 301 301 301 301 301 302 301 301 302 301 301 301 300 300 300 300 300 300 300 301 300 300 300 300 299 299 299 298 298 298 299 300 299 300 300 300 301 301 301 301 301 302 303 303 302 302 302 303 303 304 304 304 305 305 306 306 307 307 307 308 308 309 310 310 310 310 310 310
304 305 306 305 305 306 307 306 306 304 303 303 304 304 303 303 302 301 301 302 301 302 302 302 301 301 301 301 301 301 301 300 300 300 300 299 300 300 299 299 298 298 298 298 298 298 297 297 298 299 299 299 299 299 300 301 301 301 301 301 303 302 301 301 302 302 302 303 303 304 304 304 304 305 306 305 306 306 307 308 309 309 310 310 310 309
303 304 305 304 304 305 305 303 302 302 302 302 303 302 302 302 302 302 302 301 301 301 301 301 300 300 300 300 300 300 300 299 299 299 298 298 298 298 298 297 297 297 296 297 297 296 296 296 297 297 298 298 298 298 299 299 300 301 301 302 302 301 301 301 301 301 302 302 302 303 303 303 303 304 304 304 305 305 306 307 308 308 308 309 309 309
301 301 303 303 303 302 303 302 302 302 301 301 301 301 301 301 301 300 300 300 300 299 299 299 299 298 298 298 299 299 298 297 297 297 297 296 297 297 296 295 295 295 295 295 295 295 295 295 296 296 296 297 297 297 298 298 299 299 300 300 301 300 300 301 300 301 301 301 302 302 302 302 302 303 303 304 304 304 305 305 306 307 307 308 308 309
301 301 302 303 303 302 303 302 302 302 301 301 301 300 300 299 299 299 299 298 298 298 298 298 298 298 298 297 296 297 297 296 295 295 295 294 295 295 295 294 294 294 294 294 294 294 294 295 295 296 296 296 296 296 296 297 297 298 299 299 299 300 300 300 300 300 301 301 301 301 301 302 302 302 302 302 302 303 303 304 305 305 306 306 308 308
301 301 302 302 301 302 302 302 301 301 301 300 300 300 299 299 299 299 298 298 298 298 298 299 298 298 298 297 296 296 296 295 295 294 294 294 295 295 294 294 294 294 294 294 294 294 294 294 295 295 295 295 295 295 295 296 296 297 297 298 298 298 299 299 299 300 300 300 300 300 301 301 301 301 301 301 301 302 303 303 303 304 305 305 306 307
300 300 301 301 301 301 301 300 300 300 300 299 300 300 300 299 299 299 299 299 299 298 298 298 298 298 297 297 296 296 295 295 295 295 294 295 295 295 295 294 294 294 294 294 294 294 294 294 294 294 294 294 294 294 295 295 295 296 296 297 297 297 297 298 298 299 299 299 299 300 300 300 300 300 300 301 301 302 302 302 302 303 304 304 305 305
300 300 300 300 301 300 300 300 300 300 300 300 300 300 300 299 299 299 299 299 298 298 298 298 298 297 297 296 296 296 295 295 295 296 295 295 295 295 294 294 294 294 294 293 293 293 293 293 293 293 293 294 294 294 294 294 294 295 295 295 295 296 296 296 297 297 298 298 299 299 299 299 300 300 300 301 301 301 301 301 301 301 301 301 302 301
300 300 300 299 300 300 300 300 300 299 299 300 300 299 299 299 299 299 299 298 298 298 298 297 297 297 296 296 295 295 295 295 295 295 295 295 295 294 294 294 293 293 293 292 292 293 293 293 293 293 293 293 293 293 293 294 294 294 294 294 294 294 295 295 295 296 296 297 297 297 298 298 298 299 299 299 300 300 301 301 301 300 299 298 298 298
Wind_Speed
5 6 7 7 7 8 10 7 3 3 3 3 4 6 7 6 7 8 5 5 2 6 8 11 10 12 11 8 10 9 9 10 9 10 8 8 8 8 9 9 9 8 9 13 15 16 16 14 14 15 13 14 15 15 15 16 15 14 14 15 16 16 16 15 13 13 11 10 9 9 9 9 8 8 7 6 6 5 6 6 6 6 5 5 5 5
5 7 8 7 4 3 4 2 2 2 3 5 6 6 7 7 6 5 4 4 3 5 7 8 11 12 8 7 9 9 10 10 10 10 9 9 9 8 9 10 10 8 8 12 14 15 16 15 15 15 15 16 16 15 15 14 14 15 14 16 17 15 14 14 13 13 11 10 9 10 10 10 9 9 8 7 7 6 6 6 6 5 5 5 5 5
7 8 8 6 3 3 2 1 4 6 6 6 7 6 6 7 6 5 5 4 3 5 5 6 9 8 6 6 9 10 9 8 8 9 8 9 9 8 10 10 10 9 9 10 12 15 17 15 16 15 15 17 16 15 14 11 12 15 13 9 11 12 12 13 13 13 12 11 10 11 11 10 10 9 8 9 8 7 7 6 5 5 5 5 6 6
7 6 7 7 5 4 5 4 7 6 7 8 6 7 6 6 7 4 6 5 3 3 5 5 7 5 6 7 8 7 7 6 6 7 7 8 8 8 9 10 10 10 10 11 12 14 16 16 17 15 15 15 14 13 12 12 12 11 9 6 8 12 12 11 14 14 12 12 12 12 12 10 10 10 10 10 9 7 7 7 6 5 5 4 5 6
5 3 3 7 8 8 7 7 9 7 7 9 8 9 6 6 6 3 5 5 4 4 5 6 8 6 7 9 8 6 5 6 6 7 8 8 8 8 9 10 10 10 10 11 12 13 14 15 16 15 14 13 13 13 12 13 16 17 15 11 11 15 14 11 13 13 12 14 14 14 13 11 11 11 10 9 8 8 7 7 7 6 5 4 5 6
5 6 5 8 9 10 9 7 10 9 7 8 10 12 7 4 5 2 3 5 5 6 6 7 7 6 8 10 9 8 7 8 7 8 9 9 9 9 9 9 10 10 9 10 11 12 13 14 15 15 14 14 14 14 12 12 20 22 18 18 19 19 16 13 12 12 14 15 15 14 13 12 11 10 9 9 8 8 7 8 8 7 5 5 5 6
4 5 6 7 8 10 9 8 10 10 8 6 9 13 11 6 5 4 5 6 6 3 4 4 6 5 8 9 9 9 9 10 8 9 10 9 9 9 8 9 9 10 9 9 10 11 12 13 13 13 14 15 14 13 11 9 17 20 19 20 22 20 19 17 14 15 18 18 15 14 13 11 11 10 9 9 8 8 8 8 9 8 6 5 5 6
5 6 6 7 8 9 8 7 9 11 9 3 6 9 11 9 7 7 7 7 4 1 4 6 7 4 7 8 8 9 10 10 10 9 9 9 9 9 9 8 9 9 10 9 9 9 11 12 12 13 14 13 10 9 8 9 13 16 18 19 17 18 21 20 18 19 21 19 15 13 11 10 10 11 11 10 9 9 9 9 8 7 7 6 6 6
8 10 9 10 9 7 7 5 8 13 10 2 6 4 7 7 6 7 7 6 3 2 6 8 6 6 6 7 6 8 10 10 11 10 10 9 9 9 9 8 8 8 9 9 9 9 9 6 3 4 7 8 7 8 8 10 12 12 14 14 13 18 21 17 18 20 20 19 15 11 10 10 11 12 13 11 10 10 10 9 8 7 8 8 7 7
5 5 6 10 9 4 3 1 4 13 8 3 5 4 4 4 4 5 7 5 4 6 8 7 5 6 5 7 6 8 9 8 8 8 8 8 8 8 8 8 8 8 8 9 9 8 9 13 10 6 7 8 8 8 9 9 8 6 5 5 6 12 14 13 18 19 18 19 16 11 10 12 12 14 13 12 12 11 10 10 9 8 8 9 8 8
3 1 2 7 6 1 3 4 1 7 4 2 7 7 6 6 4 4 5 4 5 8 7 7 4 6 5 7 7 5 3 4 4 5 5 4 4 5 6 7 8 8 7 8 7 9 15 19 19 18 16 13 11 9 7 10 11 9 7 6 6 3 2 3 9 13 16 19 16 11 11 12 13 14 14 13 12 11 10 10 9 10 9 9 9 8
6 5 4 5 4 1 2 3 2 3 3 5 8 8 7 6 5 5 5 4 7 7 5 6 4 7 6 5 6 6 5 4 3 3 3 1 1 2 4 5 7 7 7 8 8 12 15 14 15 16 15 14 12 9 13 16 13 9 7 5 4 1 3 1 3 5 11 16 15 12 11 12 12 13 13 13 13 11 11 10 10 10 10 9 9 8
8 9 8 6 5 6 7 4 5 5 6 7 8 7 7 6 5 7 6 6 8 4 4 4 3 8 5 3 7 8 6 4 3 2 2 2 2 1 2 4 5 6 7 8 9 12 11 10 12 11 13 14 14 17 18 16 13 10 9 8 9 9 11 13 10 7 8 9 14 14 11 11 11 11 12 13 13 12 11 11 11 11 10 9 9 8
7 9 11 9 6 8 10 6 6 7 7 9 9 7 7 6 6 7 7 7 7 3 4 3 2 6 6 4 7 7 6 5 4 3 3 3 2 1 1 3 4 5 6 7 9 12 10 9 10 11 14 16 18 20 19 19 16 13 12 11 12 14 15 16 15 11 11 11 14 16 12 10 10 9 10 11 12 12 12 12 12 11 10 9 8 8
9 8 10 11 6 9 13 10 6 7 9 10 8 7 7 6 5 6 6 6 7 4 5 4 3 6 6 3 6 5 5 5 5 5 4 4 3 2 2 3 5 5 5 5 8 12 9 9 11 13 15 16 16 16 17 19 20 17 14 14 17 19 19 16 14 16 17 16 15 17 13 11 10 9 10 10 11 13 12 12 12 12 11 10 9 9
9 6 7 6 2 7 12 10 7 8 9 7 5 7 6 5 4 2 1 1 3 4 4 5 4 1 1 3 5 4 4 6 6 7 7 6 6 5 5 6 6 6 6 6 9 10 9 10 13 16 17 17 15 14 15 20 22 20 19 22 23 20 19 17 16 18 19 17 15 16 14 12 11 10 10 10 12 13 13 14 13 12 12 11 10 9
8 5 7 6 3 6 6 5 6 7 5 6 6 7 2 2 4 3 1 2 1 6 4 5 5 3 3 4 5 4 4 7 7 8 8 8 8 7 7 6 6 6 6 7 8 9 9 10 13 16 17 17 17 16 14 18 22 23 23 24 23 18 16 17 19 20 19 17 15 15 15 13 12 12 12 12 13 14 16 16 14 14 13 12 11 10
7 5 6 7 7 5 1 4 6 4 4 4 7 7 4 1 3 4 4 3 4 8 4 5 8 6 6 5 5 4 4 7 7 8 9 8 9 8 8 7 7 8 7 8 9 10 10 12 14 15 13 11 12 12 12 16 22 24 23 22 22 19 17 18 19 19 18 16 15 15 15 14 13 12 12 14 14 15 17 17 16 15 15 13 13 12
6 6 5 5 4 6 5 6 6 4 4 4 2 5 5 4 6 6 5 5 6 7 5 6 8 8 6 5 6 6 5 6 6 7 8 8 9 8 8 9 9 9 9 9 10 9 10 13 14 14 11 9 7 6 7 11 17 20 19 19 20 18 16 16 17 17 18 17 16 16 15 15 14 13 13 13 14 14 14 15 17 17 16 15 15 14
4 6 3 4 3 4 6 7 8 8 6 3 2 5 5 4 4 5 5 5 6 7 6 6 7 7 4 3 7 9 7 6 5 6 7 8 8 7 7 9 9 8 8 8 9 10 10 13 14 13 11 10 8 7 8 9 11 15 14 13 13 12 10 11 13 15 16 15 15 16 16 16 14 13 13 13 13 12 11 12 17 18 16 14 14 15
3 5 4 4 5 5 6 6 6 6 7 7 8 7 6 4 3 4 5 5 6 6 6 6 7 4 3 4 4 7 7 5 5 6 6 7 8 7 7 8 8 7 7 7 9 11 11 12 13 12 11 10 10 10 11 11 11 11 10 7 8 8 8 9 10 11 12 12 12 13 13 14 14 13 12 13 14 12 10 11 15 17 15 11 11 14
3 5 6 5 5 7 4 3 3 4 3 5 8 9 9 7 5 6 7 6 6 6 5 6 7 2 4 3 3 4 4 3 5 6 7 8 8 8 7 7 7 6 6 6 8 9 10 11 12 11 11 11 11 11 11 11 12 9 6 5 6 6 6 6 7 8 8 9 10 10 11 12 13 12 12 14 14 13 11 11 13 14 13 11 10 11
1 2 6 6 4 2 5 6 3 4 3 3 4 5 8 8 8 9 8 6 6 6 4 6 6 2 4 3 3 4 3 4 6 6 8 8 8 7 7 7 7 6 6 7 7 8 10 13 13 12 12 11 12 11 8 7 8 7 4 4 6 7 7 6 6 7 7 7 8 9 10 10 11 12 12 13 14 14 12 11 11 13 13 12 11 10
1 2 6 6 4 2 4 3 2 1 3 5 3 1 4 6 6 6 5 3 5 6 5 6 6 3 4 4 4 4 5 6 7 7 8 8 8 7 8 9 8 8 9 9 9 9 11 13 14 13 12 10 9 9 6 3 2 3 4 4 6 7 7 6 6 6 6 5 6 8 9 10 10 11 12 13 13 14 14 12 11 12 12 12 12 11
1 2 5 7 7 5 6 6 5 4 4 5 2 1 1 3 2 3 3 3 6 8 8 8 5 3 4 4 5 6 8 8 8 8 9 9 9 8 9 10 9 9 10 11 11 10 11 11 12 12 12 11 9 8 7 5 3 1 1 3 4 5 6 5 5 5 4 4 6 8 9 9 10 10 12 12 11 12 15 14 12 12 12 11 11 11
1 0 3 7 9 9 8 6 4 4 4 2 2 3 1 1 3 4 5 7 8 8 9 9 3 5 6 6 7 7 8 9 8 9 10 10 10 9 9 9 8 9 10 11 11 11 11 11 11 12 12 11 10 8 7 6 5 4 3 3 4 3 3 4 3 2 3 5 8 9 9 9 9 9 10 11 10 11 13 14 13 12 12 12 12 12
1 2 4 4 1 2 0 3 3 1 3 4 4 4 3 0 2 4 7 8 6 6 8 6 5 10 8 7 9 8 8 8 8 10 11 10 10 10 9 8 8 9 9 10 10 11 11 12 12 13 13 12 11 9 8 6 5 4 4 4 4 4 3 3 3 3 4 6 7 8 9 9 9 8 9 10 9 9 11 12 12 12 12 13 13 13
3 2 6 7 7 6 6 7 6 3 4 5 6 6 5 3 1 3 3 4 6 5 6 4 11 13 9 8 8 8 8 7 7 9 10 10 10 10 9 9 10 10 10 10 11 11 12 12 12 13 13 13 12 11 10 9 7 6 5 5 5 4 3 3 3 5 6 6 6 7 8 9 9 9 10 10 8 8 9 11 12 13 12 12 13 13
5 2 2 3 7 8 8 8 9 9 8 7 8 9 9 8 6 4 4 6 6 2 1 6 12 12 9 8 8 8 7 7 8 8 9 10 11 11 11 10 11 11 11 12 12 12 13 12 12 13 14 14 14 13 12 10 9 8 7 7 6 5 5 4 4 4 5 6 6 7 7 8 9 10 11 11 9 9 10 13 15 14 13 12 12 12
5 4 5 4 5 7 7 7 9 8 6 5 8 8 8 10 10 8 7 7 6 6 6 9 14 12 8 7 8 8 7 7 8 9 10 11 11 10 11 11 11 11 12 12 12 13 13 13 14 15 16 15 15 14 13 11 10 9 8 8 7 6 5 5 4 4 4 4 4 4 5 7 7 8 10 11 10 10 12 15 15 13 13 13 12 10
3 4 8 7 4 3 2 4 5 6 4 3 4 6 6 6 7 7 6 6 5 6 7 10 12 10 6 6 8 8 8 8 9 10 10 10 9 10 11 11 12 12 12 13 13 13 13 14 15 16 16 16 16 15 14 12 11 10 9 8 8 7 6 6 6 5 4 4 4 4 4 5 5 6 8 9 10 11 13 13 13 12 12 12 11 10
4 4 8 7 5 5 5 3 3 4 4 3 3 3 5 5 4 6 5 5 4 3 5 7 7 7 6 7 8 9 10 10 10 11 11 9 9 10 11 11 12 12 12 13 13 13 14 14 14 16 16 16 16 15 14 13 13 12 11 9 8 7 6 6 6 5 4 4 4 3 3 3 4 5 5 6 7 8 10 10 10 10 10 10 10 9
5 6 7 7 6 6 7 5 2 1 2 4 3 1 4 3 4 5 5 5 5 3 0 2 5 7 8 8 9 10 11 11 10 10 9 10 11 11 12 12 12 12 12 12 13 13 13 14 15 16 15 15 15 14 14 13 14 13 12 10 9 8 7 7 6 5 4 4 3 2 2 2 3 4 4 5 5 7 7 8 8 9 9 9 9 8
6 7 6 6 5 4 6 5 1 5 6 2 1 1 1 1 4 5 5 5 4 3 3 6 8 9 9 9 10 12 11 11 11 10 10 10 10 11 12 12 12 12 13 13 13 13 14 15 15 16 15 14 13 13 13 13 12 12 11 10 10 9 9 8 8 7 6 5 4 3 2 2 2 2 3 3 4 6 7 8 8 8 8 8 8 9
7 7 5 5 4 3 6 6 6 7 4 2 3 2 1 3 7 11 10 7 6 5 7 9 10 9 9 10 11 12 13 13 13 13 12 11 10 11 12 12 12 12 12 12 13 13 15 16 16 15 15 13 12 12 12 12 11 10 9 9 9 8 8 8 8 8 7 6 5 4 3 3 2 2 2 3 4 5 7 8 8 8 9 9 9 10
7 7 4 4 3 3 6 8 6 2 2 5 5 4 4 5 7 9 8 8 7 5 7 9 10 10 11 12 11 12 13 13 12 11 10 9 9 9 9 8 8 10 11 12 12 13 14 15 15 15 14 13 13 12 12 12 10 9 9 8 7 7 6 6 6 6 6 6 6 5 4 3 2 2 3 3 5 5 6 8 8 9 9 9 9 9
5 6 5 4 1 2 6 7 3 3 3 4 5 4 3 2 1 1 3 5 5 3 6 10 11 12 12 12 11 11 11 11 9 9 9 9 8 8 8 8 7 6 8 11 12 13 13 13 13 13 12 12 13 12 12 11 9 8 9 8 7 5 5 4 5 5 4 5 5 5 4 3 1 1 3 4 5 6 6 7 8 9 9 10 10 11
2 3 5 5 1 2 5 5 4 4 4 4 5 4 3 3 3 3 1 4 4 3 6 10 11 11 11 11 10 8 6 6 6 6 7 8 9 8 10 10 10 10 10 10 11 11 11 12 11 11 10 11 11 12 12 11 10 9 8 8 7 6 5 5 6 5 5 5 4 4 3 3 2 0 2 3 4 5 6 8 8 8 9 10 11 12
3 2 3 5 3 3 4 6 6 5 1 4 5 4 3 2 2 4 3 4 6 5 5 7 9 9 8 7 6 3 4 4 5 6 5 7 8 9 9 10 11 11 11 11 12 11 11 11 10 10 10 11 12 13 13 12 11 9 9 8 7 6 7 7 7 6 6 6 5 4 3 3 3 2 2 2 2 3 5 7 9 9 10 10 11 12
2 1 4 6 5 6 7 7 4 1 3 4 3 3 3 2 1 4 5 5 7 7 5 6 8 7 5 4 3 1 2 1 5 6 5 6 8 9 9 9 10 11 11 12 13 12 11 11 11 11 11 11 11 11 11 11 10 9 9 8 7 7 7 7 7 7 6 6 6 5 4 4 4 4 4 3 2 2 4 6 8 10 12 11 11 12
3 2 4 6 6 6 7 7 3 2 4 3 3 3 2 0 2 4 3 4 8 8 6 7 7 6 5 3 2 4 6 6 6 7 6 6 7 8 9 9 10 10 10 11 12 11 11 10 10 10 10 10 10 9 9 9 9 8 8 7 6 6 7 7 7 7 7 6 6 5 5 5 5 5 5 5 4 4 5 6 8 10 13 13 13 14
2 0 2 4 4 3 4 5 3 2 3 3 3 3 0 2 2 2 3 6 9 9 8 9 8 8 7 7 7 6 7 7 7 6 6 6 7 7 8 9 9 9 10 10 10 10 11 10 9 9 9 9 9 9 8 8 8 8 7 7 6 5 6 7 7 7 7 6 6 6 5 5 5 5 5 5 6 6 6 7 9 10 13 14 14 15
3 2 3 1 2 2 4 6 4 1 3 3 2 1 0 1 2 5 6 7 9 9 8 8 8 8 7 7 8 7 6 7 6 6 6 6 7 7 8 9 9 9 10 10 10 10 11 10 9 9 9 9 9 8 8 8 8 7 7 8 6 6 7 8 8 8 8 8 7 7 6 5 5 4 4 4 6 7 8 8 9 10 13 14 14 16
4 4 2 2 3 3 4 3 1 2 3 3 2 3 5 5 5 7 7 7 7 6 6 6 7 7 7 7 6 6 6 6 6 6 6 6 7 8 8 9 9 9 9 10 9 10 10 10 10 10 9 9 8 8 8 7 7 8 8 8 7 7 8 8 8 9 9 9 9 8 8 7 6 5 4 4 5 6 7 9 9 10 13 14 15 17
5 4 2 3 4 3 2 4 4 4 5 5 5 7 10 9 7 7 7 7 6 5 4 5 6 7 7 6 5 5 5 5 6 6 5 6 6 7 8 9 9 9 9 10 9 9 10 10 10 10 10 9 8 9 8 8 8 9 9 9 8 8 9 9 9 10 10 10 10 10 9 9 9 8 7 6 5 5 7 8 9 11 13 14 16 18
4 2 2 2 6 7 7 7 7 7 7 8 8 8 9 9 8 7 7 7 6 6 6 5 6 6 6 6 5 5 5 5 5 5 5 6 6 7 8 8 8 9 9 10 9 9 10 10 9 9 10 10 10 10 9 8 9 10 11 10 10 10 10 10 11 11 11 12 12 11 10 10 11 11 10 9 8 8 8 7 8 11 13 14 16 18
3 0 1 4 5 3 4 6 7 8 9 9 8 8 8 8 7 6 6 6 5 5 5 5 5 5 5 5 5 4 4 4 5 5 5 5 5 6 7 8 8 9 9 10 10 10 10 10 10 10 11 11 11 11 10 10 11 11 11 11 11 12 12 12 12 13 13 13 13 12 12 12 12 12 11 11 12 12 11 10 9 10 11 13 15 17
2 0 2 4 2 2 5 8 7 7 7 6 5 6 6 6 7 7 7 7 6 6 6 5 4 4 4 4 4 4 4 3 4 5 5 4 5 6 7 8 9 9 10 10 11 11 11 11 11 12 12 13 12 12 12 12 12 12 12 12 13 13 14 14 14 14 14 14 14 14 15 15 14 14 14 14 15 15 14 13 12 11 11 12 12 13
1 1 1 3 4 5 7 8 7 6 6 5 4 5 5 5 6 7 6 6 5 5 5 5 4 4 4 4 4 4 4 3 4 5 5 5 5 7 8 9 10 11 12 12 13 13 13 13 13 14 14 14 14 13 13 13 13 13 13 13 13 14 15 15 15 16 17 17 17 17 16 16 16 16 16 16 16 16 16 15 15 13 11 11 10 10
2 2 2 3 4 4 5 7 6 3 3 5 5 5 5 5 5 5 5 4 4 3 3 3 3 3 3 4 4 4 4 4 5 6 6 6 7 9 10 11 12 13 13 13 13 13 13 13 13 14 14 15 14 14 14 14 14 14 14 15 15 15 16 17 17 18 18 18 18 18 18 18 18 17 16 16 15 16 16 17 17 18 16 14 13 14
1 2 1 1 1 3 5 7 4 1 2 5 6 6 5 4 4 4 4 3 3 2 3 4 4 3 3 4 4 5 5 6 7 8 8 8 10 11 12 13 13 13 12 12 11 11 12 12 13 13 14 14 14 14 14 14 14 14 14 15 15 16 18 19 20 20 20 19 19 19 20 21 22 21 20 19 18 16 16 16 17 18 19 19 19 20
Wind_Direction
209 205 201 212 205 195 200 219 281 354 324 256 210 222 228 214 205 202 158 105 209 242 227 224 225 232 228 187 164 166 175 194 192 179 174 168 169 175 185 192 191 189 182 177 182 184 185 188 186 187 190 191 195 191 187 186 177 177 176 164 167 169 157 147 138 138 141 141 147 151 150 147 140 136 130 120 112 106 101 101 104 105 108 108 104 106
215 220 211 209 194 169 189 221 302 283 260 242 228 221 216 221 210 165 140 126 160 243 230 213 228 229 213 172 163 167 180 193 194 187 180 172 169 176 186 192 191 180 166 168 175 180 183 184 184 188 192 192 196 192 191 186 166 173 184 168 166 166 151 145 143 144 151 153 156 156 152 149 141 138 135 126 119 112 105 102 102 105 111 113 107 99
210 225 218 194 115 88 140 191 221 232 241 233 226 228 218 211 203 134 130 159 168 239 227 195 220 212 170 177 171 171 187 190 193 194 186 176 171 178 187 190 190 175 164 172 178 181 184 183 183 187 193 196 197 194 189 181 170 178 186 163 150 152 146 146 151 154 159 159 157 156 153 148 140 133 126 122 121 117 112 105 100 103 108 113 110 102
205 220 214 178 141 182 192 193 215 226 232 228 220 224 214 186 206 191 152 160 165 242 260 211 206 176 150 171 165 173 192 179 191 202 193 183 178 184 186 186 190 182 175 182 186 186 185 185 185 188 193 195 197 196 187 181 171 149 134 114 121 146 158 161 161 161 163 160 155 150 144 138 130 125 122 121 123 122 115 106 100 101 101 103 105 99
213 103 143 179 181 209 210 195 213 223 216 217 221 230 219 175 216 250 130 148 167 196 240 221 199 173 164 173 167 171 183 178 195 207 202 191 181 184 186 186 189 187 185 187 189 189 189 187 185 187 190 191 193 196 193 176 147 122 123 147 169 174 171 166 163 163 165 165 157 145 138 131 126 128 132 132 133 131 121 110 105 102 99 100 102 95
225 103 130 188 191 209 217 205 210 220 215 205 213 231 244 206 217 264 138 180 209 186 192 217 209 172 166 179 173 165 180 190 191 201 204 194 187 186 186 186 187 189 192 192 193 192 194 191 185 184 185 187 193 196 198 169 143 141 147 164 187 187 166 155 162 167 172 168 157 150 147 144 142 141 144 143 140 136 125 117 113 106 100 99 100 97
218 134 169 196 195 208 221 222 205 211 225 201 189 211 228 230 227 240 212 213 231 180 148 226 239 174 164 178 170 167 186 190 186 200 203 193 193 193 188 187 185 188 191 196 199 195 196 195 187 185 187 191 196 191 190 165 150 158 166 172 185 182 165 166 170 170 177 173 162 159 155 153 153 146 141 139 136 132 124 120 119 111 103 100 100 99
196 178 194 208 214 217 220 220 195 203 229 187 139 193 211 216 219 224 225 225 238 118 143 221 252 212 173 166 158 168 186 188 189 199 201 196 197 198 194 189 184 185 189 195 200 198 197 196 191 189 190 194 195 180 169 163 159 165 177 181 182 180 178 181 178 173 178 176 167 164 159 152 151 144 140 140 135 132 127 124 121 112 106 102 98 96
183 198 200 205 217 219 210 202 179 200 224 112 101 187 204 207 218 217 226 230 220 219 200 202 232 229 178 140 144 175 187 188 188 190 193 197 199 200 199 193 189 186 186 189 195 199 188 168 160 184 190 185 173 168 165 169 169 169 181 183 179 187 186 183 182 176 176 177 170 165 159 149 144 142 143 144 139 135 132 127 120 110 108 107 98 91
154 208 219 213 217 211 180 71 181 205 216 95 126 172 169 188 213 217 231 228 196 228 223 186 204 238 183 143 160 187 187 178 175 176 178 188 198 203 202 196 195 191 184 187 193 183 136 112 104 124 174 171 155 172 178 165 153 138 158 170 170 185 180 178 185 177 173 179 174 166 161 150 144 144 145 144 140 138 135 131 122 115 114 112 106 94
129 127 262 229 236 324 79 60 228 215 213 145 179 183 176 186 195 211 233 231 211 228 215 167 194 250 205 164 166 163 149 127 136 149 144 161 192 208 213 204 198 194 185 187 175 128 115 128 150 163 166 163 162 176 152 110 96 83 74 55 51 64 82 148 178 178 179 180 175 170 165 156 150 147 146 143 141 141 137 132 124 120 118 114 112 103
205 197 207 211 224 263 166 142 133 188 196 200 202 195 190 189 190 207 209 213 229 227 178 137 188 240 226 175 137 111 91 75 86 127 118 136 195 203 226 216 201 192 184 185 159 118 116 144 172 168 150 147 154 133 98 96 103 104 97 90 102 180 281 214 179 217 201 184 176 172 166 162 156 150 147 143 142 143 138 133 127 124 122 119 117 109
215 218 213 194 186 213 223 188 149 171 196 208 211 203 202 198 197 210 204 207 228 216 127 122 202 230 223 126 106 103 91 70 50 41 32 331 312 330 234 219 203 190 179 180 154 125 131 165 183 168 138 132 127 113 114 128 135 132 130 141 164 189 206 199 201 254 256 207 183 174 168 164 158 150 146 142 142 142 137 135 132 128 128 126 123 114
202 213 215 209 190 205 226 219 173 176 191 204 206 204 213 210 201 212 209 211 220 175 113 126 212 226 207 114 85 81 72 64 63 53 33 4 345 345 219 191 184 177 175 177 150 131 144 172 173 160 145 136 128 127 141 151 144 142 146 154 172 185 193 197 200 213 236 235 198 181 174 163 156 151 146 143 142 141 136 135 134 130 130 129 126 118
209 206 203 208 189 183 211 232 218 189 190 205 213 213 226 231 220 225 228 227 225 186 133 149 204 228 208 117 66 63 68 69 74 78 77 65 60 75 109 134 142 147 160 163 132 126 151 173 155 143 138 134 134 142 153 154 150 154 165 180 190 189 188 192 197 200 215 228 208 190 183 167 156 152 148 147 143 141 138 136 134 131 131 132 129 123
228 222 169 173 140 178 205 225 228 213 198 197 222 226 231 247 236 230 288 309 260 223 165 173 204 245 162 110 83 82 85 81 81 87 93 89 87 94 100 109 117 123 137 134 118 126 162 167 142 133 132 132 147 169 168 160 160 166 177 190 194 188 184 189 199 205 211 216 207 197 191 177 167 161 154 152 149 145 142 139 135 132 133 135 134 131
229 223 134 144 180 196 220 222 210 233 214 174 211 221 204 298 258 228 175 94 295 248 197 179 207 164 145 157 128 118 97 85 80 82 85 86 89 93 94 102 110 115 128 133 132 140 148 134 124 130 138 146 165 184 177 164 168 175 178 183 183 178 178 186 196 203 205 206 204 201 197 190 184 176 164 160 157 153 149 144 139 136 136 138 138 138
235 222 148 179 200 168 224 235 198 239 255 200 211 199 130 50 247 242 236 190 214 237 200 179 214 200 186 179 141 137 107 82 77 81 87 87 87 85 87 95 104 110 117 122 124 124 112 104 110 122 137 160 177 185 179 170 175 180 177 175 177 180 185 192 199 204 207 207 205 204 203 200 195 185 172 166 163 162 157 149 145 144 142 143 143 142
232 232 156 175 197 141 155 213 196 193 242 271 239 177 173 219 212 208 231 220 213 230 216 193 210 215 211 185 158 161 130 96 91 91 94 91 85 84 89 98 105 111 114 114 117 115 104 99 104 116 137 166 174 174 192 186 181 185 182 175 179 188 194 199 204 210 213 211 208 209 208 205 201 192 180 170 168 173 169 157 153 152 150 150 146 144
217 240 186 153 167 153 173 207 210 192 187 229 242 195 206 245 231 207 217 227 227 232 224 202 208 217 212 141 144 148 130 122 123 107 102 93 87 91 98 106 113 114 113 114 117 115 108 105 110 124 147 163 164 174 211 214 187 190 195 175 168 176 180 187 196 204 209 207 207 210 208 207 205 193 179 173 174 182 181 166 158 155 156 159 153 147
197 235 224 154 151 187 197 206 230 219 190 200 212 206 205 216 238 239 224 229 246 243 227 219 223 204 91 55 98 117 113 128 137 122 116 107 100 98 104 114 117 109 105 107 111 109 106 110 119 135 153 165 173 184 208 210 178 185 209 182 150 156 160 164 173 184 197 202 205 209 207 207 203 190 178 177 180 183 180 171 163 159 161 169 165 155
197 224 227 193 189 209 190 89 353 315 276 226 220 216 214 209 213 228 222 212 234 251 248 240 235 163 79 31 39 80 96 132 139 130 121 116 110 103 108 121 116 104 99 97 101 104 106 112 121 138 157 168 176 185 204 199 166 165 204 185 151 160 165 159 155 160 177 192 200 204 203 203 198 189 181 180 182 185 180 173 171 168 167 171 169 161
23 258 234 221 220 189 95 76 34 345 326 276 255 238 229 222 219 231 231 203 205 229 245 251 244 137 74 41 44 63 88 126 137 130 119 120 120 111 118 127 120 109 102 97 98 100 105 114 120 132 149 158 165 172 187 192 165 150 150 151 157 170 174 165 155 152 157 175 192 197 195 197 195 189 184 182 185 186 183 179 177 175 172 170 165 160
68 265 242 227 219 142 112 129 137 35 258 234 229 245 251 241 233 250 259 211 206 216 215 236 233 155 85 56 62 84 103 120 131 123 115 121 122 121 128 129 125 121 111 103 101 100 106 113 117 120 129 137 143 145 144 149 160 142 129 142 158 163 165 163 152 145 151 171 194 198 194 193 191 188 187 188 189 188 186 186 185 182 177 171 165 163
166 238 244 224 211 198 191 191 179 180 213 221 197 112 305 272 232 242 261 241 238 229 221 235 233 124 95 80 81 97 108 113 118 116 117 122 122 125 128 123 120 120 113 105 101 99 100 107 112 113 113 114 117 120 121 118 123 140 150 173 179 164 162 166 155 148 167 199 202 198 196 192 188 188 189 190 193 191 190 191 192 190 185 177 172 170
227 320 272 238 222 216 211 202 198 195 179 152 113 99 52 252 212 223 228 228 234 217 217 240 234 114 109 101 93 97 104 107 112 114 114 115 116 117 116 113 112 113 108 102 95 89 87 90 99 107 108 106 104 103 105 111 124 137 135 166 194 193 180 172 160 166 225 228 208 198 196 190 184 185 190 195 200 200 197 197 198 197 191 186 182 178
92 48 359 330 264 241 302 66 38 306 157 129 116 105 78 82 242 255 236 233 242 214 212 224 151 132 125 106 102 102 106 111 117 117 113 112 111 111 112 110 108 107 105 101 94 86 84 84 88 96 102 104 102 99 99 104 116 128 128 144 170 189 194 185 180 194 214 216 207 202 201 198 192 187 190 197 203 206 206 204 205 204 198 194 191 188
81 30 358 17 52 49 42 62 63 58 90 89 87 83 62 60 185 245 248 299 311 253 220 154 129 132 117 100 108 109 108 108 104 107 113 116 116 117 117 110 104 101 96 95 94 89 86 84 84 87 91 97 102 102 100 99 101 109 126 136 141 150 154 159 175 181 186 194 199 201 203 204 206 205 204 205 210 217 222 221 216 212 206 198 195 196
112 116 316 22 70 57 39 58 71 68 71 73 76 75 62 56 62 67 49 10 352 313 186 111 115 112 94 96 107 101 101 108 106 108 115 116 118 121 118 108 102 99 94 90 89 86 85 84 81 80 80 84 90 93 95 96 95 98 107 115 120 127 128 131 148 158 171 187 196 202 203 203 208 213 210 209 212 219 228 229 221 212 205 198 195 198
141 151 180 167 106 68 32 40 67 71 69 71 70 66 62 61 61 65 62 43 47 68 81 97 99 88 74 88 99 95 96 104 109 113 113 113 115 115 110 106 102 97 93 90 86 84 83 82 79 76 74 73 74 77 80 84 88 93 94 97 100 103 106 111 117 125 147 163 166 181 193 194 201 207 205 202 205 211 219 221 214 205 201 200 203 208
193 172 170 170 141 107 48 32 62 67 50 35 26 17 24 45 57 64 57 40 51 80 97 105 98 85 75 89 101 108 106 103 106 107 107 107 108 105 101 99 99 96 93 91 90 88 84 80 79 77 74 71 70 70 71 74 79 84 86 90 94 94 94 96 98 102 110 113 115 131 159 175 186 198 202 201 200 203 210 212 207 202 202 203 208 211
192 164 166 183 200 187 173 149 86 52 16 322 294 333 7 20 48 63 47 12 11 73 124 130 106 95 107 110 108 108 101 95 92 91 93 93 90 93 96 95 93 93 92 91 88 85 82 78 75 73 73 73 71 69 71 73 74 74 75 82 90 92 90 91 96 101 101 102 109 123 141 164 181 194 201 204 205 203 205 208 206 205 204 203 207 206
168 155 167 196 214 192 170 157 106 35 259 256 240 129 48 56 100 93 57 28 9 352 265 119 97 108 125 124 112 102 91 81 74 73 80 85 81 78 79 82 83 81 81 82 81 78 76 73 70 68 68 70 69 69 70 71 72 71 72 78 85 88 88 87 89 92 96 106 114 120 146 178 195 207 211 216 218 212 210 213 213 210 204 200 202 201
167 174 179 197 218 191 163 158 201 229 224 226 116 136 55 89 133 117 80 51 33 12 45 80 99 114 120 117 110 99 86 76 69 59 54 65 77 76 70 69 71 72 70 66 65 66 65 66 66 62 62 61 62 65 66 66 68 71 74 78 81 83 85 85 86 86 87 92 96 102 119 142 163 192 209 215 211 207 210 213 211 206 200 199 206 207
174 186 190 194 211 172 148 170 211 224 222 48 60 136 141 117 117 106 89 66 62 88 104 104 108 109 103 101 102 98 92 84 75 64 49 44 56 65 62 53 47 51 58 58 55 53 54 57 58 55 54 54 54 57 57 54 57 64 71 74 78 79 80 82 84 83 81 81 81 83 91 104 122 146 168 186 191 197 206 206 206 208 205 208 216 218
182 186 186 182 182 154 168 191 205 193 102 78 87 111 118 132 132 115 91 65 56 85 116 115 112 111 108 107 106 106 105 97 85 77 69 60 61 67 66 56 39 31 33 40 44 44 43 46 49 48 44 44 46 48 48 45 44 50 55 56 61 68 69 71 75 75 72 71 67 63 64 76 102 138 164 182 189 195 199 197 200 206 204 203 206 203
198 192 181 168 169 212 205 199 168 125 144 134 118 112 98 102 142 87 85 79 55 60 118 123 121 120 119 119 120 123 123 113 94 80 75 73 79 87 87 88 88 69 44 37 39 40 37 36 41 43 40 38 38 37 37 37 38 45 49 45 39 43 52 57 57 54 52 51 47 43 42 46 70 151 180 193 195 196 194 191 192 193 190 188 187 181
273 227 194 184 193 264 232 212 192 199 198 137 117 105 55 22 330 312 79 116 97 83 119 126 127 127 127 130 132 138 153 141 107 81 69 64 64 70 72 71 73 74 65 50 42 40 37 33 34 38 38 36 33 28 24 23 26 35 44 44 36 34 40 42 36 29 22 15 10 12 15 16 17 344 210 206 197 188 185 186 184 182 180 178 175 171
26 348 233 210 191 193 225 231 226 227 203 100 111 93 47 13 299 280 242 158 133 125 127 128 131 131 130 136 141 165 228 193 125 89 65 59 57 53 54 54 51 51 50 44 36 31 30 29 26 28 30 28 25 20 14 12 15 18 23 25 27 33 38 34 25 16 8 359 347 338 337 337 339 337 296 243 219 194 187 185 182 178 177 178 176 173
119 187 232 231 211 198 215 231 229 180 72 88 93 48 24 8 288 243 228 171 135 134 131 126 131 128 126 154 170 60 353 100 113 91 61 58 60 51 44 42 39 36 35 33 27 19 18 20 20 19 20 19 15 11 7 6 5 5 7 5 6 20 25 18 11 4 357 352 345 339 337 326 321 323 315 306 302 264 223 206 195 185 183 186 187 183
124 170 218 232 226 210 217 227 216 91 77 83 67 41 23 222 211 225 218 124 119 125 116 106 108 103 98 115 122 80 64 67 85 85 66 52 52 46 39 34 31 28 27 25 21 14 10 10 12 13 11 10 6 1 1 0 354 351 352 348 349 4 5 356 352 347 342 341 341 344 349 344 334 319 302 296 297 285 258 233 219 206 197 195 194 188
67 62 223 235 247 227 214 223 213 102 60 25 34 51 343 235 195 147 106 112 117 112 101 95 88 81 79 75 74 83 87 78 73 70 57 46 39 31 26 23 20 19 18 15 14 12 4 357 360 2 360 358 356 351 352 350 342 338 337 332 333 343 341 335 333 330 327 325 325 331 340 344 345 333 306 291 284 277 263 246 235 224 214 210 205 195
12 299 218 167 342 265 216 224 234 157 64 360 345 116 131 295 121 110 109 116 112 103 98 90 76 69 72 75 74 75 76 69 57 46 40 36 29 18 15 13 7 6 5 360 359 2 356 345 344 348 345 343 342 341 340 336 329 324 320 316 317 322 322 319 315 313 312 310 310 314 314 318 328 330 318 304 289 275 261 251 242 232 225 221 213 204
11 323 248 84 10 286 233 218 288 73 76 19 350 91 85 78 105 119 116 111 109 110 107 90 74 63 58 64 69 65 61 53 38 28 22 15 11 5 2 0 356 354 352 347 347 351 346 336 332 332 330 330 331 330 326 320 315 310 305 302 303 306 306 303 301 301 299 296 296 296 296 298 300 300 300 302 295 279 262 251 244 236 229 223 218 213
37 17 7 51 50 25 39 79 81 88 95 76 70 91 94 93 99 108 110 107 98 88 83 80 76 64 49 46 51 53 48 35 22 18 9 360 359 356 351 350 348 345 342 338 338 341 336 328 322 318 316 318 320 319 313 307 301 295 290 290 292 295 293 291 289 289 286 283 282 283 284 285 284 282 283 284 282 275 261 249 242 237 230 224 222 220
64 32 349 71 105 91 74 88 101 102 101 94 86 87 88 85 83 81 87 90 76 62 61 64 66 60 46 39 38 39 36 23 9 7 3 353 349 348 345 343 342 341 338 333 333 333 329 322 317 315 315 315 315 311 305 299 292 287 284 284 285 286 285 284 283 280 278 277 276 275 275 275 274 272 269 269 270 267 259 249 243 238 234 230 228 226
82 360 63 116 137 132 105 113 114 106 107 107 100 94 90 87 85 81 82 87 86 82 79 77 78 76 64 53 43 30 25 21 5 358 358 349 343 344 341 339 339 337 333 329 328 326 322 319 318 318 318 318 317 313 306 299 291 286 284 283 282 282 280 278 277 276 275 274 273 273 271 270 268 265 262 263 263 258 252 248 244 239 236 235 233 233
88 222 133 116 125 115 115 123 121 112 114 116 111 111 111 106 103 101 102 108 114 109 99 92 84 69 55 52 41 13 3 14 10 360 353 345 342 342 340 338 336 331 327 326 325 323 320 317 317 318 317 317 317 313 308 301 293 289 287 284 282 281 278 276 274 273 273 272 271 270 268 266 263 261 261 261 256 250 247 245 242 240 238 238 237 238
106 210 131 107 115 110 115 131 139 134 134 140 126 108 107 109 111 110 111 113 113 104 95 86 70 54 43 37 21 357 350 10 16 2 348 341 343 343 339 334 328 324 325 325 323 322 320 316 316 317 315 313 312 309 306 302 297 293 290 286 285 283 279 277 275 273 271 270 269 268 266 265 262 260 259 259 253 249 247 244 241 241 240 238 240 243
221 166 133 167 170 147 135 148 157 155 145 148 142 124 113 113 116 117 114 104 93 81 68 57 50 49 48 39 24 7 1 9 8 355 343 341 343 340 335 330 326 323 324 323 322 320 318 316 316 314 311 309 309 306 304 302 298 295 290 287 285 282 279 277 276 274 272 270 268 266 266 266 266 264 261 260 257 255 253 249 246 248 248 246 246 248
316 72 88 215 154 101 125 142 143 23 69 116 129 133 129 123 119 118 108 87 69 43 17 10 4 2 20 36 33 18 4 355 351 347 342 340 340 337 333 330 329 327 326 326 325 324 322 320 318 314 312 311 310 307 306 305 302 299 296 291 288 283 279 276 274 273 273 271 270 270 269 268 267 267 265 263 261 260 259 256 253 255 256 255 255 255